Location: Chefe Valiua
(16.5342°S, 37.2214°E)
Time: 16:47:59
(UTC+00:00)

Envisat - Visible Passes

Search period start: 13 June 2021 00:00
Search period end: 23 June 2021 00:00
Orbit: 764 x 766 km, 98.1° (Epoch: 12 June)

Date Brightness Start Highest point End Pass type
(mag) Time Alt. Az. Time Alt. Az. Time Alt. Az.
13 Jun 3.6 02:04:47 10° NNE 02:09:43 54° ESE 02:13:41 16° S visible
14 Jun 5.3 01:29:28 10° ENE 01:33:06 20° ESE 01:36:20 12° SSE visible
14 Jun 4.0 03:07:35 10° NNW 03:11:50 27° W 03:16:06 10° SW visible
14 Jun 5.2 15:29:45 10° SSW 15:33:54 25° WSW 15:38:01 10° NW visible
15 Jun 2.9 02:29:57 10° N 02:35:00 75° WNW 02:39:12 15° SSW visible
16 Jun 4.2 01:53:36 10° NE 01:58:18 39° ESE 02:01:52 17° SSE visible
16 Jun 5.8 15:56:56 10° SW 15:59:03 13° WSW 16:01:10 10° W visible
17 Jun 5.6 01:18:57 10° ENE 01:21:44 15° ESE 01:24:31 10° SE visible
17 Jun 3.6 02:55:43 10° NNW 03:00:21 36° W 03:04:44 12° SW visible
18 Jun 3.0 02:18:30 10° NNE 02:23:34 81° ESE 02:27:24 18° S visible
19 Jun 4.7 01:42:32 10° NE 01:46:54 29° ESE 01:50:04 16° SSE visible
19 Jun 4.4 03:22:20 10° NW 03:25:45 18° W 03:29:11 10° SW visible
19 Jun 5.6 15:44:26 10° SSW 15:47:41 17° WSW 15:50:55 10° WNW visible
20 Jun 5.9 01:09:16 10° E 01:10:22 11° ESE 01:11:29 10° ESE visible
20 Jun 3.2 02:44:00 10° N 02:48:53 49° W 02:52:56 15° SSW visible
21 Jun 3.4 02:07:09 10° NNE 02:12:08 59° ESE 02:15:37 20° S visible
22 Jun 5.1 01:31:39 10° ENE 01:35:29 22° ESE 01:38:18 14° SSE visible
22 Jun 4.1 03:10:11 10° NNW 03:14:16 24° W 03:18:22 10° SW visible
22 Jun 5.4 15:32:21 10° SSW 15:36:17 23° WSW 15:40:14 10° NW visible
